Big Bear Station Historical Data
Daily Summary for November 10, 2017 Units:  English    Metric   Both
Next Day »
Daily Weekly Monthly Yearly Custom
  High: Low: Average:
Temperature: 59.2 °F 30.0 °F 43.7 °F
Dew Point: 25.4 °F 4.6 °F 13.4 °F
Humidity: 79% 15% 33%
Wind Speed: 16.6mph 0.0mph 2mph
Wind Gust: -999.0mph - -
Wind- - SW
Pressure: 30.13 in 30.08 in -
Precipitation: 0.00 in    
Historical Graphs
 
 
Tabular Data for November 10, 2017
Time Temperature Dew Point Pressure Wind Wind Speed Wind Gust Humidity Rainfall Rate (Hourly)
00:03 32.2 °F 18.3 °F 30.13 in Calm   -999.0 mph 56% 0 in
00:18 32.0 °F 20.8 °F 30.13 in Calm   -999.0 mph 63% 0 in
00:33 32.2 °F 22.5 °F 30.13 in Calm   -999.0 mph 67% 0 in
00:48 31.8 °F 23.5 °F 30.13 in Calm   -999.0 mph 71% 0 in
01:04 31.5 °F 24.2 °F 30.12 in Calm   -999.0 mph 74% 0 in
01:19 31.6 °F 23.3 °F 30.12 in Calm   -999.0 mph 71% 0 in
01:35 30.9 °F 22.9 °F 30.12 in Calm   -999.0 mph 72% 0 in
01:50 31.6 °F 23.3 °F 30.12 in Calm   -999.0 mph 71% 0 in
02:05 30.9 °F 23.3 °F 30.11 in Calm   -999.0 mph 73% 0 in
02:20 30.9 °F 24.2 °F 30.11 in Calm   -999.0 mph 76% 0 in
02:35 30.9 °F 23.9 °F 30.11 in Calm   -999.0 mph 75% 0 in
02:51 30.6 °F 24.2 °F 30.10 in Calm   -999.0 mph 77% 0 in
03:06 30.2 °F 24.5 °F 30.10 in Calm   -999.0 mph 79% 0 in
03:21 30.0 °F 20.0 °F 30.10 in Calm   -999.0 mph 66% 0 in
03:36 30.6 °F 18.4 °F 30.10 in Calm   -999.0 mph 60% 0 in
03:52 34.7 °F 13.4 °F 30.10 in Calm   -999.0 mph 41% 0 in
04:07 32.2 °F 15.6 °F 30.10 in Calm   -999.0 mph 50% 0 in
04:22 34.2 °F 10.6 °F 30.11 in SSW 1.1 mph -999.0 mph 37% 0 in
04:37 36.7 °F 11.6 °F 30.10 in Calm   -999.0 mph 35% 0 in
04:52 34.7 °F 17.0 °F 30.11 in Calm   -999.0 mph 48% 0 in
05:08 36.7 °F 8.9 °F 30.11 in West 1.1 mph -999.0 mph 31% 0 in
05:23 38.8 °F 6.8 °F 30.10 in WNW 1.1 mph -999.0 mph 26% 0 in
05:38 40.8 °F 5.8 °F 30.10 in Calm   -999.0 mph 23% 0 in
05:53 40.8 °F 6.8 °F 30.10 in Calm   -999.0 mph 24% 0 in
06:08 40.8 °F 5.8 °F 30.11 in Calm   -999.0 mph 23% 0 in
06:24 40.8 °F 4.8 °F 30.11 in Calm   -999.0 mph 22% 0 in
06:39 41.7 °F 4.6 °F 30.11 in Calm   -999.0 mph 21% 0 in
06:54 41.4 °F 5.3 °F 30.11 in WSW 1.7 mph -999.0 mph 22% 0 in
07:09 43.2 °F 5.8 °F 30.11 in NW 2.7 mph -999.0 mph 21% 0 in
07:25 43.9 °F 8.4 °F 30.11 in Calm   -999.0 mph 23% 0 in
07:40 45.7 °F 6.9 °F 30.12 in NW 2.2 mph -999.0 mph 20% 0 in
07:55 46.6 °F 7.6 °F 30.12 in West 2.7 mph -999.0 mph 20% 0 in
08:11 46.9 °F 7.9 °F 30.12 in Calm   -999.0 mph 20% 0 in
08:26 47.7 °F 9.6 °F 30.12 in West 2.2 mph -999.0 mph 21% 0 in
08:41 49.8 °F 9.1 °F 30.12 in NW 1.7 mph -999.0 mph 19% 0 in
08:57 51.1 °F 10.2 °F 30.12 in WNW 3.7 mph -999.0 mph 19% 0 in
09:12 52.2 °F 9.9 °F 30.12 in NW 4.7 mph -999.0 mph 18% 0 in
09:28 52.9 °F 10.5 °F 30.12 in NNW 3.7 mph -999.0 mph 18% 0 in
09:43 53.4 °F 10.9 °F 30.12 in SW 2.7 mph -999.0 mph 18% 0 in
09:59 54.3 °F 11.6 °F 30.12 in NW 4.7 mph -999.0 mph 18% 0 in
10:14 54.5 °F 9.2 °F 30.12 in NNE 4.2 mph -999.0 mph 16% 0 in
10:29 55.8 °F 11.6 °F 30.12 in NNW 7.3 mph -999.0 mph 17% 0 in
10:44 56.3 °F 13.3 °F 30.11 in WSW 3.2 mph -999.0 mph 18% 0 in
11:00 55.6 °F 12.7 °F 30.11 in NW 7.3 mph -999.0 mph 18% 0 in
11:15 55.8 °F 11.6 °F 30.11 in West 6.8 mph -999.0 mph 17% 0 in
11:30 56.5 °F 12.2 °F 30.11 in ESE 2.7 mph -999.0 mph 17% 0 in
11:45 57.0 °F 12.6 °F 30.10 in NNW 8.3 mph -999.0 mph 17% 0 in
12:00 56.8 °F 11.0 °F 30.10 in SW 5.8 mph -999.0 mph 16% 0 in
12:16 57.9 °F 11.9 °F 30.10 in West 7.8 mph -999.0 mph 16% 0 in
12:31 58.3 °F 13.6 °F 30.09 in NW 3.2 mph -999.0 mph 17% 0 in
12:46 59.2 °F 11.5 °F 30.08 in NW 5.8 mph -999.0 mph 15% 0 in
13:02 57.2 °F 9.9 °F 30.08 in WNW 9.9 mph -999.0 mph 15% 0 in
13:17 57.2 °F 11.4 °F 30.08 in NW 6.8 mph -999.0 mph 16% 0 in
13:32 56.7 °F 11.0 °F 30.08 in NNE 16.6 mph -999.0 mph 16% 0 in
13:47 57.0 °F 12.6 °F 30.08 in SE 2.2 mph -999.0 mph 17% 0 in
14:02 55.9 °F 14.2 °F 30.08 in ENE 3.7 mph -999.0 mph 19% 0 in
14:18 55.6 °F 15.1 °F 30.08 in NW 5.8 mph -999.0 mph 20% 0 in
14:33 55.0 °F 16.8 °F 30.08 in NNE 2.7 mph -999.0 mph 22% 0 in
14:48 54.7 °F 18.6 °F 30.09 in WNW 3.2 mph -999.0 mph 24% 0 in
15:03 53.8 °F 18.8 °F 30.09 in WNW 3.7 mph -999.0 mph 25% 0 in
15:18 53.6 °F 19.5 °F 30.09 in Calm   -999.0 mph 26% 0 in
15:34 53.4 °F 21.9 °F 30.09 in WSW 1.1 mph -999.0 mph 29% 0 in
15:49 52.7 °F 22.1 °F 30.08 in WNW 2.7 mph -999.0 mph 30% 0 in
16:04 51.8 °F 24.3 °F 30.08 in Calm   -999.0 mph 34% 0 in
16:19 50.7 °F 25.4 °F 30.08 in NNW 2.2 mph -999.0 mph 37% 0 in
16:34 49.3 °F 22.8 °F 30.09 in Calm   -999.0 mph 35% 0 in
16:50 47.8 °F 22.8 °F 30.09 in Calm   -999.0 mph 37% 0 in
17:05 46.6 °F 20.4 °F 30.10 in SSE 1.7 mph -999.0 mph 35% 0 in
17:21 45.7 °F 14.4 °F 30.10 in Calm   -999.0 mph 28% 0 in
17:36 45.1 °F 12.2 °F 30.10 in Calm   -999.0 mph 26% 0 in
17:51 44.2 °F 11.4 °F 30.10 in SSE 1.7 mph -999.0 mph 26% 0 in
18:06 43.5 °F 10.8 °F 30.11 in SSE 1.7 mph -999.0 mph 26% 0 in
18:21 43.0 °F 10.4 °F 30.11 in South 1.7 mph -999.0 mph 26% 0 in
18:37 43.0 °F 9.5 °F 30.11 in Calm   -999.0 mph 25% 0 in
18:52 42.3 °F 10.7 °F 30.11 in SSE 1.1 mph -999.0 mph 27% 0 in
19:07 41.7 °F 10.1 °F 30.11 in SE 1.7 mph -999.0 mph 27% 0 in
19:23 40.5 °F 9.9 °F 30.11 in SSE 1.7 mph -999.0 mph 28% 0 in
19:38 40.3 °F 8.9 °F 30.11 in SSE 1.1 mph -999.0 mph 27% 0 in
19:53 39.4 °F 8.2 °F 30.11 in South 1.7 mph -999.0 mph 27% 0 in
20:09 39.4 °F 7.3 °F 30.11 in SSE 1.1 mph -999.0 mph 26% 0 in
20:24 38.8 °F 6.8 °F 30.11 in Calm   -999.0 mph 26% 0 in
20:39 38.5 °F 6.5 °F 30.11 in Calm   -999.0 mph 26% 0 in
20:54 38.1 °F 10.1 °F 30.11 in SSE 2.2 mph -999.0 mph 31% 0 in
21:10 37.9 °F 13.3 °F 30.11 in SSE 1.7 mph -999.0 mph 36% 0 in
21:25 37.9 °F 12.0 °F 30.11 in SSE 1.7 mph -999.0 mph 34% 0 in
21:41 37.6 °F 11.1 °F 30.11 in South 2.2 mph -999.0 mph 33% 0 in
21:56 37.6 °F 8.2 °F 30.12 in Calm   -999.0 mph 29% 0 in
22:11 38.3 °F 7.2 °F 30.11 in South 1.7 mph -999.0 mph 27% 0 in
22:26 38.1 °F 10.1 °F 30.11 in South 1.7 mph -999.0 mph 31% 0 in
22:42 37.2 °F 7.1 °F 30.11 in Calm   -999.0 mph 28% 0 in
22:57 36.5 °F 13.3 °F 30.12 in Calm   -999.0 mph 38% 0 in
23:12 36.3 °F 14.3 °F 30.12 in Calm   -999.0 mph 40% 0 in
23:27 36.7 °F 9.6 °F 30.11 in Calm   -999.0 mph 32% 0 in
23:42 36.5 °F 8.0 °F 30.11 in Calm   -999.0 mph 30% 0 in
23:58 36.5 °F 5.6 °F 30.11 in Calm   -999.0 mph 27% 0 in
Big Bear CA Weather